Theta_e
340 341 344 344 344 343 343 341 340 340 340 340 339 339 340 341 341 342 341 341 343 344 344 344 343 342 343 339 339 343 344 344 343 344 340 344 346 349 349 340 345 346 345
341 343 342 342 343 342 340 339 340 339 339 339 339 339 339 339 340 340 341 341 341 342 342 343 343 342 342 343 339 341 342 342 344 344 345 342 341 348 349 348 337 344 345
341 341 341 342 340 340 340 340 340 339 339 339 339 339 338 338 338 338 339 340 340 340 340 340 340 341 342 342 341 341 343 342 343 345 344 343 344 345 346 349 344 338 344
341 341 339 341 340 338 336 337 336 337 337 337 337 337 337 337 337 336 337 337 338 339 338 338 339 340 339 340 340 339 340 341 342 344 347 347 343 343 344 344 344 344 338
338 339 341 338 336 333 334 333 332 333 333 332 331 329 330 327 325 329 328 330 331 332 334 335 336 338 339 338 338 337 337 337 339 341 342 344 346 344 342 344 340 339 342
338 338 338 331 326 323 325 322 321 322 323 323 322 322 322 321 321 323 321 317 316 317 321 324 327 329 330 332 336 337 336 336 337 337 336 338 338 343 339 341 344 341 337
337 335 328 323 322 320 319 319 318 317 318 319 320 320 323 319 322 319 318 317 317 320 320 321 322 318 320 325 328 331 333 336 338 335 334 336 338 342 342 336 338 342 340
332 325 324 323 323 321 320 320 320 318 317 315 315 316 316 318 321 320 319 318 317 321 319 318 319 320 320 319 319 323 326 330 332 331 332 332 334 334 341 339 336 335 339
324 324 326 327 327 324 320 320 321 320 320 320 319 319 321 323 322 324 320 320 319 323 322 322 323 323 322 322 321 314 313 323 328 329 327 326 328 330 335 339 338 335 336
325 326 326 325 325 325 323 321 321 321 321 320 321 320 319 319 321 320 325 322 320 325 324 325 325 326 325 324 324 323 324 323 317 319 325 327 325 327 336 338 338 336 335
325 327 324 319 320 323 324 322 322 322 322 320 320 319 319 318 319 320 320 322 324 324 322 321 319 318 323 322 318 317 318 317 318 321 319 328 330 329 334 339 338 336 334
326 325 320 319 318 319 319 319 320 324 323 321 319 318 318 318 318 318 318 318 317 318 317 317 317 317 318 317 317 318 318 318 316 317 326 331 330 330 330 330 338 336 334
322 319 319 319 318 318 318 318 319 320 321 322 321 319 318 318 318 317 317 317 317 317 318 317 317 315 317 317 317 318 318 318 317 316 317 323 329 331 330 329 336 336 334
321 320 320 317 316 316 317 317 318 318 318 320 321 320 319 318 318 315 315 317 317 317 317 316 316 316 317 317 318 318 318 318 318 318 317 317 323 329 334 335 336 337 334
321 321 320 318 319 319 319 317 318 319 318 317 318 319 319 318 317 317 315 316 317 318 316 315 315 316 317 318 317 316 316 317 317 318 318 317 317 323 328 330 329 329 332
321 321 320 321 322 322 322 320 319 319 319 318 319 318 319 319 317 317 317 316 316 317 316 315 315 317 318 316 315 314 315 315 316 317 317 318 317 317 319 324 328 330 332
321 321 322 323 323 323 322 323 320 320 320 320 321 318 319 319 318 317 317 316 315 315 315 315 315 315 317 315 314 315 316 317 317 317 316 317 318 317 317 318 321 328 330
322 321 321 324 324 324 325 324 323 321 321 322 322 321 319 318 318 317 317 317 317 315 315 315 315 315 315 316 315 316 317 318 317 316 316 316 318 318 317 317 318 323 328
323 319 321 321 323 327 327 325 324 324 323 324 321 318 321 319 318 317 317 317 316 315 315 315 315 315 316 315 316 317 316 316 317 317 317 316 317 317 317 317 317 318 321
324 321 319 320 321 323 327 325 324 325 325 323 319 318 318 319 318 318 317 316 316 317 315 315 315 314 316 316 316 317 315 315 317 317 316 316 317 317 317 317 317 317 317
326 327 327 320 320 323 325 327 327 325 323 323 321 321 319 318 319 318 317 316 317 317 316 316 314 315 316 316 317 317 315 316 316 316 315 315 316 317 317 318 317 317 317
329 328 326 323 325 325 326 326 327 325 323 322 320 321 323 320 318 318 318 318 317 318 317 317 314 316 317 316 318 315 311 314 316 314 315 315 314 313 315 316 318 319 317
328 328 328 329 328 328 328 327 326 325 324 323 322 319 322 320 320 319 318 318 318 319 318 316 315 316 316 317 317 316 312 310 312 315 315 315 314 313 313 314 315 317 318
330 330 330 329 328 327 326 326 325 325 323 322 321 319 320 320 319 319 319 319 319 318 319 317 316 315 317 316 317 317 317 316 314 312 315 315 315 314 313 314 314 315 318
331 328 326 326 325 324 324 324 322 323 323 323 321 319 319 320 319 319 317 317 318 317 317 317 315 315 316 316 317 317 317 317 316 313 316 312 315 316 314 315 314 314 316
326 325 324 324 323 322 322 320 321 321 321 319 316 317 317 317 319 318 318 316 317 318 316 316 315 315 316 316 317 317 316 316 314 312 311 315 313 315 315 314 314 315 315
Wind_Speed
11 11 10 8 10 11 11 10 11 11 11 11 12 12 11 10 10 10 9 7 7 7 7 6 5 5 4 3 3 5 5 4 3 4 5 7 9 10 9 10 12 13 13
14 10 9 10 11 10 9 9 10 10 10 11 12 12 11 10 9 8 8 7 6 6 6 6 5 5 4 3 2 2 3 5 4 4 4 4 6 8 8 9 11 14 11
12 9 9 9 9 8 9 9 10 10 10 10 11 11 11 10 10 9 7 7 7 6 6 4 4 4 3 2 2 2 0 2 3 4 4 5 6 8 7 8 9 12 13
13 11 7 7 8 8 8 8 9 10 9 10 11 10 10 9 8 7 7 7 7 7 7 7 6 6 4 4 3 2 1 2 2 4 5 4 5 7 9 9 11 11 12
12 11 9 7 7 7 7 7 7 8 8 8 9 9 8 8 7 7 6 6 6 7 7 7 7 8 7 6 5 5 4 4 4 5 5 4 8 9 9 10 11 13 13
13 11 8 7 7 6 6 5 5 4 4 4 4 4 5 5 5 5 6 7 9 10 9 9 9 8 8 8 8 7 6 7 7 7 6 7 9 13 10 10 12 12 14
14 10 8 7 5 6 6 6 7 5 4 4 3 3 3 4 4 5 8 8 11 12 12 10 10 10 10 10 10 10 9 9 9 10 9 9 5 10 13 13 13 13 14
13 12 9 6 4 4 5 6 7 7 7 4 3 3 2 2 3 4 6 7 9 12 13 12 10 10 11 12 13 12 11 11 11 12 11 10 9 7 14 16 15 15 14
13 11 7 5 2 1 3 5 6 7 8 6 6 6 6 5 4 6 6 9 10 10 12 12 12 12 12 11 11 12 15 13 13 14 13 12 11 13 15 22 18 17 16
11 8 4 1 2 2 1 3 3 2 4 4 5 5 5 7 3 6 6 11 9 9 12 12 13 14 12 11 12 13 14 12 14 15 12 12 12 11 13 21 18 17 17
11 6 4 2 3 4 3 4 6 5 3 3 3 2 5 7 5 3 3 8 4 8 9 6 7 9 7 9 11 13 13 13 15 10 11 10 8 9 11 18 19 18 18
13 9 9 5 6 5 1 2 3 7 7 5 3 4 5 7 8 7 9 7 6 7 6 5 9 9 6 8 11 12 13 12 11 8 8 4 8 11 14 19 21 20 17
17 14 11 8 6 4 1 3 4 1 6 9 8 6 6 6 9 11 9 8 9 9 6 8 12 13 9 11 14 14 14 11 9 9 8 8 8 8 11 16 20 20 17
17 16 12 9 7 4 1 2 1 2 5 5 10 9 9 8 9 11 11 9 9 8 7 11 10 13 14 13 12 10 12 12 11 9 7 7 8 6 5 9 13 15 18
21 17 12 9 4 1 3 3 4 5 6 7 9 9 11 9 8 8 11 7 8 6 6 13 14 14 12 8 11 13 15 14 12 11 9 8 7 9 6 5 8 14 17
19 16 12 9 5 4 5 5 5 6 8 11 13 11 14 12 8 7 10 7 10 8 10 14 14 10 10 13 16 16 16 16 14 12 11 11 9 9 10 11 11 11 12
18 15 12 10 10 10 9 9 8 8 9 11 15 13 13 14 12 12 12 10 8 10 12 13 12 13 11 15 18 18 16 14 12 12 11 11 12 11 10 13 13 13 15
20 18 16 12 12 12 15 16 15 12 12 15 17 18 16 17 16 14 12 13 12 10 11 13 14 14 15 16 19 20 17 16 14 12 12 12 11 13 13 12 13 14 14
19 21 20 16 15 16 18 18 20 18 17 19 15 16 20 19 20 17 13 12 13 13 12 12 11 15 14 16 18 20 20 18 16 14 14 12 11 11 12 14 15 17 18
21 21 22 21 19 20 18 18 23 24 22 17 14 14 13 18 18 18 16 15 13 14 14 12 13 15 13 15 19 21 20 17 14 8 5 5 5 9 13 15 15 15 19
21 23 23 24 27 26 23 23 27 30 27 24 22 15 14 15 17 17 16 15 15 15 16 13 12 12 12 13 17 18 18 9 10 6 8 4 5 7 7 7 14 16 17
21 20 20 23 25 24 24 29 25 24 24 18 17 18 16 19 20 19 18 16 15 16 16 15 13 11 10 14 4 6 4 6 3 17 9 4 12 16 12 10 10 13 19
17 18 19 17 21 22 24 26 22 24 25 23 21 18 14 16 24 23 21 19 18 18 17 14 15 12 13 12 9 5 2 3 7 7 17 7 20 17 20 19 16 14 15
15 12 12 14 16 17 17 16 19 22 25 27 23 23 22 18 17 17 16 19 21 18 18 15 14 14 12 13 12 9 14 9 3 4 6 15 20 22 25 26 21 18 16
5 4 5 7 8 10 12 14 17 21 23 23 24 25 25 21 18 18 18 17 16 16 15 15 15 15 15 15 13 13 12 14 16 9 8 9 22 26 27 24 23 19 20
8 8 6 5 7 8 9 11 16 18 19 21 22 24 26 27 27 25 17 15 15 17 15 15 14 16 16 14 15 15 15 9 7 10 5 10 12 20 23 28 20 19 21
Wind_Direction
155 148 143 121 102 95 87 83 82 80 85 84 80 77 77 79 80 79 73 69 73 68 71 61 56 72 59 53 68 115 107 100 103 118 126 141 140 136 128 132 139 130 134
149 144 140 122 111 99 93 85 86 82 75 76 77 79 72 68 69 68 68 67 62 64 49 44 45 53 51 31 42 105 139 140 134 138 145 137 152 153 149 140 138 139 139
144 134 130 117 112 107 96 95 94 87 81 80 75 68 74 69 60 55 53 52 42 41 35 44 26 8 18 15 17 23 160 148 161 153 163 180 172 181 184 160 150 151 150
152 145 135 122 112 106 99 94 87 85 82 79 77 75 71 72 66 60 57 52 42 28 22 14 12 8 345 340 347 335 299 268 222 212 220 214 209 214 195 186 168 162 165
155 148 134 129 113 102 95 93 90 89 85 80 71 67 60 55 54 47 40 31 16 7 5 359 355 357 353 333 319 317 302 293 295 262 222 226 220 232 215 197 188 179 175
150 149 147 138 121 101 88 63 49 42 46 49 48 45 47 35 20 26 25 13 8 352 336 328 327 328 326 319 317 306 298 297 297 274 255 239 280 231 221 217 203 194 187
155 153 146 133 111 93 72 44 26 13 3 358 5 19 24 18 24 35 32 31 16 4 345 329 320 311 311 312 313 309 311 299 297 279 270 257 280 225 233 228 219 209 197
156 153 143 129 121 102 61 45 44 33 28 16 349 336 357 348 2 356 6 357 3 357 360 357 348 336 319 309 303 305 305 307 300 292 281 266 257 258 237 233 221 221 214
160 155 147 149 131 97 51 29 37 33 34 44 43 41 7 334 337 313 338 333 332 335 338 342 342 341 338 337 329 315 298 298 303 290 284 277 263 257 264 230 228 221 218
166 153 136 109 259 253 282 353 346 360 18 28 11 8 29 20 349 342 303 333 318 308 328 325 331 325 320 334 335 336 327 311 313 293 294 296 278 265 254 221 228 228 225
176 178 152 146 216 187 238 302 289 262 283 326 353 339 344 345 356 16 27 353 353 320 345 352 10 13 353 330 342 340 334 325 332 306 303 296 283 265 242 227 228 233 230
196 179 161 122 127 141 178 331 309 226 248 274 265 311 329 346 334 322 316 325 320 333 345 354 345 349 354 338 332 337 337 327 330 343 336 310 303 281 265 236 233 235 238
167 167 170 154 138 136 136 41 62 216 261 259 254 275 283 310 330 319 314 318 336 340 331 333 340 329 327 334 336 341 346 338 325 329 323 321 313 306 268 227 226 234 233
171 172 165 159 145 129 56 301 322 286 294 257 252 264 260 290 334 346 324 304 328 333 331 334 333 325 330 327 338 346 344 351 345 327 326 313 301 327 263 220 222 225 229
178 179 177 169 169 108 18 332 285 306 293 312 301 269 261 281 313 334 342 311 339 331 335 341 334 325 328 334 332 330 327 327 330 336 318 302 302 277 279 260 252 245 240
186 188 191 202 220 264 296 311 283 270 259 278 307 270 270 266 277 312 326 286 289 298 322 327 337 327 332 334 335 330 322 315 306 316 322 300 286 277 262 255 255 250 243
202 207 211 224 241 252 272 285 292 278 278 290 297 282 270 253 260 292 288 275 297 306 302 317 318 323 318 332 331 326 316 312 310 311 309 308 284 267 263 259 258 246 241
223 228 230 233 241 261 273 277 279 278 285 291 297 275 271 256 260 265 269 278 273 304 301 307 307 317 317 321 323 322 318 310 308 305 301 293 296 279 267 258 255 246 239
238 237 239 241 253 263 276 267 271 279 281 293 282 289 263 265 257 261 272 278 274 287 302 307 309 315 315 314 321 321 317 311 307 308 305 281 280 274 269 271 255 245 242
242 248 253 251 264 271 276 274 271 275 277 287 284 287 285 271 256 255 265 273 273 276 283 283 297 304 307 314 318 314 317 311 304 303 359 343 330 283 270 260 260 247 242
247 249 257 258 263 268 270 277 274 271 278 283 272 287 291 282 253 254 269 269 270 277 280 275 291 295 301 314 319 317 318 313 298 349 322 324 337 0 331 294 256 256 247
245 253 259 258 267 268 269 270 282 279 283 284 281 287 287 278 259 260 270 276 274 273 270 273 277 278 292 308 290 318 334 322 214 333 1 24 358 335 322 312 294 269 252
239 248 255 270 277 283 281 274 279 279 281 284 287 291 296 290 266 262 266 271 277 273 265 266 269 267 281 294 281 254 306 266 327 318 321 306 335 334 329 314 289 269 264
243 259 271 275 284 286 287 288 287 284 285 292 292 304 296 284 267 262 260 267 271 267 259 267 268 267 265 276 285 261 250 253 254 313 315 305 312 316 320 316 299 265 253
199 211 256 266 281 282 284 289 293 289 290 298 300 300 297 280 270 264 269 271 269 264 263 269 268 264 265 268 263 270 260 253 257 236 287 298 302 307 310 313 303 276 245
156 176 194 212 225 246 265 275 283 289 296 300 310 311 310 305 280 270 272 263 267 263 266 271 269 266 269 265 260 261 255 239 237 226 245 278 268 295 307 311 298 278 247